Powrót do katalogu

SL-8 R/B

AktywnyPO
NORAD 25893·ROCKET BODY·🇷🇺 Russia

Wystrzelony Aug 26, 1999 z Plesetsk Cosmodrome

Loading…

Następne Przeloty (najbliższe 24 godziny)

TLE

ŚwieżeSource: Space-Track

Epoka: Sep 14, 2026, 14:55 UTC

1 25893U 99045B   26257.62158811 -.00000003  00000-0 -18588-4 0  9997
2 25893  82.9272  30.7115 0028890  15.2938 355.3013 13.76854032359209

Śledź SL-8 R/B w czasie rzeczywistym z AllMySat

Download on the App Store